Location: Haulchin
(50.3172°N, 3.4360°E)
Time: 11:41:10
(UTC+00:00)

SL-27 R/B - Pass Details

Date: 23 May 2024
Orbit: 329 x 354 km, 74.7° (Epoch: 14 June)

Event Time Altitude Azimuth Distance (km) Brightness Sun altitude
Exits shadow 02:42:03 13° 211° (SSW) 1,102 3.7 -8.8°
Maximum altitude 02:44:23 66° 294° (WNW) 368 1.9 -8.5°
Drops below altitude 10° 02:47:08 10° 18° (NNE) 1,272 5.9 -8.2°
Sets 02:49:06 0° 21° (NNE) 2,114 7.3 -8.0°
